Location: Dedgom
(53.0241°N, 5.4927°E)
Time: 06:29:42
(UTC+00:00)

Daily predictions for brighter satellites

Satellite Brightness Start Highest point End
(mag) Time Altitude Azimuth Time Altitude Azimuth Time Altitude Azimuth
Cosmos 1633 Rocket 3.2 19:34:29 10° S 19:38:47 54° E 19:43:06 10° NNE
Cosmos 921 Rocket 2.9 19:35:22 10° NNW 19:39:36 76° ENE 19:43:47 10° SSE
Cosmos 2123 Rocket 4.0 19:34:26 10° N 19:40:42 76° ENE 19:46:58 10° SSE
SPOT 5 4.4 19:39:29 10° E 19:42:30 18° NE 19:45:35 10° NNE
Cosmos 2239 Rocket 4.5 19:38:41 10° S 19:44:49 82° E 19:51:02 10° NNE
Meteor 1-27 Rocket 4.3 19:40:07 10° NNW 19:46:01 67° W 19:51:53 10° S
MetOp-B 4.5 19:42:07 10° SE 19:47:18 52° ENE 19:52:30 10° N
OPS 6432 4.3 19:46:50 10° SW 19:50:42 72° SE 19:53:48 10° NE
Okean 1 3.9 19:48:02 10° N 19:51:55 41° ENE 19:55:46 10° SE
Cosmos 1707 Rocket 4.4 19:47:53 10° NNW 19:52:07 53° W 19:56:19 10° S
ERBS 3.5 19:49:28 10° WNW 19:52:38 39° N 19:55:47 10° ENE
CZ-2C R/B 2.6 19:47:39 10° NNE 19:52:52 88° ESE 19:58:08 10° SSW
Cosmos 1605 Rocket 4.2 19:48:02 10° SSE 19:53:49 48° E 19:59:37 10° NNE
Cosmos 2219 Rocket 3.9 19:52:16 10° NNW 19:56:46 23° NNE 20:01:14 10° E
USA 267 4.3 19:52:09 10° ENE 19:56:55 21° SE 20:01:39 10° S
NOSS 3-2 (A) 3.5 19:51:38 10° SSW 19:57:17 56° SE 20:03:46 10° NE
Cosmos 540 Rocket 4.1 19:54:55 10° NNW 19:59:53 44° NE 20:04:39 11° SE
SL-16 R/B 2.3 19:55:06 10° NNW 20:00:49 73° NE 20:06:27 10° SE
SL-4 R/B 1.8 19:59:06 10° WSW 20:03:06 67° S 20:06:48 10° E
BREEZE-M DEB (TANK) 2.6 20:01:30 10° WSW 20:04:05 49° SSE 20:10:12 10° E
Cosmos 2242 Rocket 3.7 20:00:12 10° N 20:04:36 57° ENE 20:08:55 10° SSE
SL-27 R/B 3.7 20:04:31 10° SSE 20:07:03 20° ESE 20:09:35 10° NE
NOSS 3-2 (C) 3.7 20:02:36 10° SSW 20:08:03 44° ESE 20:14:16 10° NE
Cosmos 1470 Rocket 3.6 20:04:15 10° S 20:08:35 61° E 20:12:54 10° NNE
Sich 1 4.2 20:05:12 10° SSW 20:09:30 48° WNW 20:13:50 10° N
BREEZE-M DEB (TANK) 2.5 20:08:40 10° WSW 20:11:19 34° S 20:12:31 17° SE
Cosmos 2082 Rocket 2.4 20:06:59 10° SW 20:12:41 78° WNW 20:18:24 10° NNE
Meteor 1-4 Rocket 4.3 20:13:04 10° NNW 20:16:09 30° W 20:19:12 10° SSW
Cosmos 2322 Rocket 2.3 20:12:24 10° NNW 20:18:09 79° ENE 20:23:14 13° SE
Cosmos 1862 Rocket 4.2 20:15:33 10° NNW 20:19:56 56° W 20:24:14 10° S
ERS-1 Rocket 3.6 20:16:14 13° SE 20:20:23 43° ENE 20:25:08 10° N
Cosmos 1850 Rocket 4.2 20:20:12 10° S 20:25:18 51° ESE 20:30:23 10° NNE
Cosmos 841 Rocket 3.6 20:20:24 10° NNW 20:25:38 67° ENE 20:29:56 15° SE
Meteor 1-25 Rocket 4.2 20:21:38 10° S 20:27:13 80° E 20:32:55 10° NNE
Cosmos 2360 Rocket 2.5 20:21:41 10° NNW 20:27:18 57° NE 20:31:48 16° SE
Cosmos 1500 4.3 20:25:36 17° SE 20:27:29 25° E 20:30:37 10° NNE
Cosmos 676 Rocket 4.3 20:22:50 10° SSW 20:28:10 73° WNW 20:33:33 10° NNE
Meteor 1-18 Rocket 4.2 20:22:37 10° NNW 20:28:14 90° W 20:33:47 10° S
SPOT 1/Viking Rocket 3.6 20:23:32 12° SSE 20:28:17 69° ENE 20:33:31 10° NNW
USA 276 3.4 20:25:51 10° W 20:28:36 27° SSW 20:30:11 18° SSE
X-37B 2.7 20:27:37 10° SW 20:29:23 14° SSW 20:30:22 13° S
Okean 3 4.5 20:25:35 10° N 20:29:29 32° ENE 20:32:07 17° ESE
USA 32 4.0 20:24:40 10° S 20:29:54 89° E 20:35:10 10° N
Terra 2.7 20:27:55 15° ESE 20:31:15 35° ENE 20:35:34 10° N
Cosmos 2237 4.4 20:25:47 10° NNW 20:31:31 66° NE 20:35:58 17° SE
ATLAS 3B R/B 3.4 20:27:55 10° S 20:33:23 29° ESE 20:38:55 10° ENE
IGS 5A 3.4 20:29:39 13° SSE 20:33:25 89° E 20:37:36 10° NNW
Cosmos 1238 Rocket 2.0 20:31:07 10° S 20:34:04 88° WNW 20:37:12 10° N
CZ-2C R/B 4.2 20:29:57 10° N 20:34:31 65° WNW 20:38:58 10° SSW
USA 234 3.3 20:29:00 11° ESE 20:35:16 84° NNE 20:41:51 10° WNW
Cosmos 1980 Rocket 4.1 20:31:05 10° NW 20:35:41 26° WSW 20:40:13 10° SSW
Cosmos 44 3.6 20:31:48 10° NW 20:36:39 64° SW 20:40:36 17° SSE
Lacrosse 5 3.1 20:33:35 10° WNW 20:38:03 32° SW 20:41:50 13° SSE
Cosmos 1666 4.4 20:37:36 16° E 20:38:24 17° E 20:40:51 10° NE
Resurs 01 Rocket 2.8 20:36:20 10° S 20:40:32 41° W 20:44:45 10° NNW
Iridium 4 Rocket 4.1 20:38:43 19° SE 20:40:43 27° E 20:44:15 10° NNE
Cosmos 1602 3.7 20:38:41 10° S 20:42:38 88° E 20:46:36 10° NNE
GP-B 3.5 20:38:39 10° N 20:43:05 66° W 20:47:28 10° SSW
CARTOSAT-1 3.7 20:40:31 19° SE 20:43:30 60° ENE 20:47:47 10° N
Cosmos 1153 Rocket 4.5 20:38:10 10° S 20:44:16 71° E 20:50:28 10° NNE
Cosmos 1833 Rocket 4.5 20:43:18 10° WSW 20:48:26 35° NW 20:53:36 10° NNE
CZ-4B DEB 4.4 20:46:38 24° SSE 20:48:27 67° ENE 20:51:47 10° N
Cosmos 1933 Rocket 3.7 20:44:43 10° SSW 20:49:09 79° WNW 20:53:38 10° N
Cosmos 1867 4.4 20:47:34 10° WSW 20:52:56 55° NW 20:58:19 10° NE
Cosmos 1814 Rocket 4.0 20:48:05 10° NNW 20:53:20 87° ENE 20:56:57 21° SSE
COSMOS 2428 3.7 20:48:19 10° NNW 20:53:40 38° NE 20:57:48 16° ESE
Cosmos 405 Rocket 3.2 20:51:49 10° SSW 20:55:30 59° WNW 20:59:16 10° N
Spot 2 Rocket 3.8 20:51:17 12° S 20:55:54 64° WSW 21:00:59 10° NNW
Cosmos 1515 4.1 20:52:56 10° NNW 20:56:44 59° W 20:59:36 16° S
Cosmos 2237 Rocket 3.9 20:53:14 10° NNW 20:57:46 24° NNE 21:02:16 10° E
USA 238 DEB 3.8 20:51:10 10° SW 20:57:52 81° NW 21:04:55 10° NE
USA 238 3.8 20:51:15 10° SW 20:57:57 81° NW 21:05:01 10° NE
Okean 1-7 3.3 20:54:16 10° NNW 20:58:35 66° W 21:01:51 16° S
Cosmos 1802 Rocket 4.4 20:54:58 18° SSE 20:59:27 48° E 21:05:27 10° NNE
Cosmos 1869 Rocket 3.6 20:57:44 19° S 21:00:47 60° E 21:05:13 10° NNE
Cosmos 44 Rocket 3.9 20:55:59 10° NW 21:00:49 50° NE 21:04:15 19° ESE
CENTAUR R/B 2.5 20:54:54 10° SW 21:01:01 79° SE 21:08:22 10° NE
Cosmos 1741 Rocket 4.0 20:58:55 10° SSW 21:04:12 89° WNW 21:09:33 10° NNE
Cosmos 1437 Rocket 3.6 21:00:51 10° NNW 21:04:28 44° W 21:07:19 15° SSW
FALCON 9 DEB 3.1 21:03:59 10° W 21:07:30 88° N 21:09:36 22° E
Cosmos 1271 Rocket 4.4 21:05:15 10° NNE 21:08:10 21° ENE 21:09:24 18° E
Cosmos 1703 Rocket 4.3 21:04:39 10° NNW 21:08:51 48° W 21:12:20 14° SSW
H-2A R/B 4.0 21:05:14 10° N 21:09:19 59° WNW 21:13:23 10° SSW
Cosmos 1570 Rocket 4.4 21:06:05 10° NNW 21:11:20 59° WSW 21:14:57 20° S
Cosmos 2333 Rocket 2.6 21:06:08 10° NNW 21:11:51 55° NE 21:15:19 23° ESE
ATLAS 5 CENTAUR R/B 1.6 21:10:02 10° NW 21:12:28 85° SW 21:14:58 26° SE
Cosmos 2084 Rocket 3.4 21:10:49 10° SW 21:15:03 89° NNW 21:19:24 10° NE
SPOT 5 2.7 21:17:39 26° S 21:20:05 74° WSW 21:24:35 10° NNW
Cosmos 2208 Rocket 4.4 21:17:41 10° NNW 21:22:50 56° WSW 21:25:58 23° S
Meteor 1-5 Rocket 4.3 21:18:35 17° S 21:23:14 75° E 21:29:06 10° NNE
ERBS 2.4 21:25:55 10° WNW 21:29:14 68° NNE 21:30:13 41° E
Cosmos 1733 Rocket 3.6 21:29:41 35° SE 21:30:49 42° E 21:35:02 10° NNE
Cosmos 1356 3.5 21:30:29 50° SE 21:30:53 54° E 21:34:16 10° NNE
Meteor 1-11 Rocket 3.8 21:31:46 27° S 21:34:56 64° E 21:40:43 10° NNE
Tsikada Rocket 4.0 21:29:06 10° N 21:35:27 70° ENE 21:38:45 30° SSE
Lacrosse 4 Rocket 1.7 21:37:37 42° SE 21:38:09 44° ESE 21:42:08 10° NE
Cosmos 968 Rocket 4.2 21:37:25 30° ESE 21:38:15 32° ESE 21:42:47 10° NE
GENESIS II 4.4 21:36:21 10° NW 21:40:19 61° SW 21:41:16 45° S
USA 267 3.2 21:34:26 10° ENE 21:40:54 59° SE 21:47:21 10° SW
ALOS 2 4.3 21:39:37 18° E 21:41:15 22° ENE 21:44:40 10° N
Cosmos 2219 Rocket 2.2 21:35:58 10° NNW 21:41:41 75° ENE 21:44:23 32° SE
SL-27 R/B 3.9 21:38:53 10° SW 21:41:57 34° WNW 21:45:03 10° N
Cosmos 2100 Rocket 4.1 21:36:57 14° SSW 21:42:21 74° WNW 21:48:32 10° N
SL-4 R/B 1.7 21:38:46 10° W 21:42:34 62° SSW 21:42:58 57° SSE
SL-16 R/B 3.9 21:39:55 10° NW 21:44:25 25° WSW 21:48:20 12° SSW
Cosmos 2173 Rocket 4.1 21:41:11 15° SSW 21:46:20 74° WNW 21:52:27 10° N
NOSS 3-2 (A) 4.4 21:42:23 10° WSW 21:48:17 52° NNW 21:55:10 10° NE
Cosmos 1242 Rocket 2.5 21:46:34 10° NNW 21:50:14 84° WSW 21:50:53 58° S
SAR-Lupe-2 4.1 21:48:56 10° N 21:52:29 56° WNW 21:54:04 29° SW
Meteor 1-23 Rocket 4.2 21:48:44 10° NNW 21:54:37 90° NE 21:57:14 35° SSE
Cosmos 2322 3.8 21:49:24 10° NW 21:55:03 70° WSW 21:57:25 36° S
NOSS 3-2 (C) 4.1 21:52:52 10° WSW 21:58:48 60° NNW 22:05:45 10° NE
Cosmos 1725 Rocket 4.0 21:55:18 28° S 21:58:52 83° E 22:05:15 10° NNE
Cosmos 1459 Rocket 4.4 21:53:47 14° SSW 21:59:17 63° WNW 22:05:39 10° N
ERS-1 Rocket 4.2 21:56:15 18° SSW 21:59:18 34° W 22:03:52 10° NNW
Spot 4 4.1 21:58:19 38° SE 21:59:52 56° ENE 22:04:37 10° N
Cosmos 836 Rocket 4.4 21:55:07 10° NNW 22:00:21 83° WSW 22:02:12 41° SSE
Cosmos 1842 4.4 21:57:49 10° N 22:01:22 31° ENE 22:01:52 30° E
Cosmos 2322 Rocket 4.0 21:57:17 10° NW 22:01:36 23° WSW 22:05:03 13° SW
Cosmos 1833 4.1 21:58:11 22° SSW 22:01:53 79° ESE 22:07:36 10° NNE
SL-08 R/B 4.4 21:59:40 28° S 22:03:04 89° ESE 22:09:15 10° N
Cosmos 2221 Rocket 4.4 21:59:27 10° NNW 22:03:44 44° W 22:05:36 28° SW
Cosmos 1378 Rocket 3.5 21:59:20 10° N 22:03:48 78° ENE 22:04:52 51° SSE
Cosmos 1536 2.8 22:03:04 49° SSW 22:04:05 81° W 22:08:05 10° N
Cosmos 1908 Rocket 4.2 22:04:49 37° ESE 22:05:09 38° E 22:09:10 10° NNE
JB-3 4.3 22:01:57 10° NNE 22:06:01 85° WNW 22:07:09 47° SSW
Cosmos 2344 4.4 21:57:43 10° NW 22:06:24 69° NE 22:17:17 13° ESE
Cosmos 2016 Rocket 4.1 22:02:20 23° SSW 22:06:35 77° WNW 22:13:00 10° N
Terra 2.8 22:06:49 25° SSW 22:08:58 39° W 22:13:28 10° NNW
Cosmos 2360 Rocket 3.4 22:06:04 10° NW 22:11:03 32° WSW 22:13:33 23° SSW
COSMOS 2487 2.4 22:12:29 68° WSW 22:12:46 74° WNW 22:16:14 10° NNE
SL-16 R/B 3.8 22:08:29 10° NNW 22:13:26 29° NE 22:17:41 13° E
Cosmos 1666 3.3 22:12:27 36° SW 22:13:36 50° WNW 22:17:18 10° N
USA 234 3.6 22:16:21 34° S 22:18:39 47° SW 22:24:56 10° WNW
Iridium 4 Rocket 4.3 22:18:30 21° SW 22:20:37 34° WNW 22:24:26 10° NNW
Cosmos 1378 3.1 22:17:17 10° NNW 22:21:01 71° W 22:21:16 67° SW
MOS 1-B Rocket 3.8 22:15:26 10° NNE 22:21:05 72° ESE 22:23:10 40° S
ATLAS 3B R/B 2.6 22:16:49 10° SW 22:23:26 84° NW 22:30:11 10° NE
Cosmos 1354 Rocket 4.4 22:23:57 43° SE 22:24:43 46° ESE 22:29:48 10° NE
Cosmos 1975 Rocket 3.5 22:22:10 10° N 22:26:34 49° ENE 22:27:17 44° ESE
Cosmos 1544 3.7 22:30:40 45° ENE 22:30:40 45° ENE 22:33:47 10° NNE
MTI 4.3 22:27:47 10° N 22:30:38 54° NW 22:30:38 54° NW
Meteor 1-21 4.5 22:25:20 10° N 22:31:07 62° ENE 22:33:00 41° SE
Cosmos 2297 Rocket 3.6 22:32:11 21° ESE 22:32:12 21° E 22:36:23 10° NE
Thor Agena Rocket 3.6 22:28:58 10° NNE 22:34:03 60° ESE 22:35:03 50° SSE
Okean 2 3.3 22:30:02 10° N 22:34:10 74° ENE 22:34:30 69° ESE
Cosmos 1980 3.8 22:29:17 10° NNW 22:35:00 74° ENE 22:36:58 42° SE
Cosmos 1743 2.6 22:35:21 83° SSW 22:35:29 90° W 22:39:25 10° N
Cosmos 1975 3.3 22:36:14 46° E 22:36:14 46° E 22:39:58 10° NNE
Cosmos 2233 Rocket 4.0 22:34:08 35° SSW 22:37:03 82° W 22:43:26 10° N
COSMOS 2428 3.0 22:32:36 10° NW 22:38:12 55° WSW 22:39:48 41° SSW
Timation 2 Rocket 4.4 22:39:51 38° SE 22:40:39 40° ESE 22:46:11 10° NE
Cosmos 1025 Rocket 4.2 22:38:03 10° N 22:41:50 29° ENE 22:42:31 28° E
Cosmos 44 Rocket 4.0 22:37:40 10° NW 22:42:20 41° WSW 22:42:56 39° SW
Cosmos 2237 Rocket 2.2 22:37:04 10° NNW 22:42:46 78° ENE 22:44:35 45° SE
Cosmos 1271 Rocket 3.3 22:40:44 10° NNW 22:44:22 44° W 22:44:31 44° WSW
Cosmos 2219 4.1 22:46:31 30° ESE 22:46:43 30° ESE 22:51:33 10° NE
Cosmos 783 Rocket 4.5 22:41:48 10° NNW 22:47:03 73° WSW 22:48:13 53° S
Cosmos 1464 Rocket 4.2 22:46:11 41° SE 22:47:57 54° E 22:53:57 10° NNE
NOSS 0 Rocket 4.0 22:43:40 10° NW 22:49:55 71° WSW 22:51:50 46° S
CENTAUR R/B 3.8 22:46:02 10° W 22:52:20 46° NNW 22:59:46 10° NE
Nadezhda 4 Rocket 4.3 22:46:33 10° N 22:52:46 58° ENE 22:54:56 39° SE
Okean 2 Rocket 4.3 22:53:44 29° E 22:53:51 29° E 22:57:46 10° NNE
Cosmos 2333 Rocket 3.1 22:50:45 10° NW 22:55:55 35° WSW 22:57:19 31° SW
Cosmos 1437 4.4 22:54:23 10° N 22:56:20 28° NE 22:56:20 28° NE
Geosat 4.2 22:58:12 50° SSW 22:59:00 56° WSW 23:03:59 10° NW
Cosmos 1503 Rocket 4.0 22:58:15 49° SSW 22:59:46 89° ESE 23:05:10 10° NNE
DNEPR-1 R/B 3.9 23:07:43 10° NW 23:13:47 75° SW 23:14:43 59° SSE
Cosmos 1092 Rocket 4.4 23:08:24 10° N 23:14:31 53° ENE 23:16:44 36° SE
Sich 1 Rocket 3.5 23:15:13 66° ESE 23:15:19 66° E 23:19:42 10° NNE
Lacrosse 4 Rocket 3.0 23:13:52 14° W 23:16:56 34° NW 23:20:46 10° NNE
Cosmos 773 Rocket 4.0 23:11:52 10° NNW 23:16:57 61° WSW 23:17:38 55° SSW
ALOS 2 2.8 23:17:01 57° WSW 23:17:15 58° W 23:21:37 10° NNW
Helios 1A 3.1 23:18:09 64° E 23:18:26 66° ENE 23:22:38 10° N
Cosmos 968 Rocket 4.2 23:17:23 27° WSW 23:19:54 48° WNW 23:24:54 10° NNE
Cosmos 2034 Rocket 4.1 23:19:27 46° SSE 23:21:15 67° E 23:27:34 10° NNE
Cosmos 1707 2.8 23:18:02 10° N 23:21:46 77° NNE 23:21:46 77° NNE
Cosmos 2227 Rocket 2.7 23:22:00 40° ESE 23:22:31 41° ESE 23:27:47 10° NE
Cosmos 1072 Rocket 4.4 23:20:37 48° SSW 23:22:31 86° W 23:28:41 10° N
YAOGAN 11 4.4 23:22:19 56° ESE 23:22:59 64° ENE 23:27:31 10° N
Cosmos 1891 Rocket 4.5 23:21:56 45° SSW 23:24:06 86° W 23:30:32 10° N
USA 267 3.4 23:17:34 10° ENE 23:24:07 75° NNW 23:30:39 10° W
Cosmos 2219 Rocket 3.6 23:20:39 10° NW 23:25:07 24° WSW 23:26:05 23° WSW
Cosmos 2151 Rocket 4.2 23:26:48 41° E 23:26:51 41° E 23:31:01 10° NNE
EO 1 Del DPAF 3.8 23:24:26 10° N 23:28:04 48° WNW 23:28:11 48° WNW
Cosmos 1536 Rocket 3.6 23:25:03 10° N 23:29:23 63° ENE 23:29:39 61° E
Cosmos 1538 Rocket 3.9 23:29:46 10° NNW 23:34:55 67° WSW 23:35:35 60° SSW
Cosmos 1782 Rocket 3.9 23:35:17 50° W 23:35:45 53° WNW 23:40:02 10° N
Cosmos 158 Rocket 4.3 23:39:28 10° NNW 23:44:50 63° ENE 23:46:39 40° SE
Cosmos 1607 4.0 23:39:13 10° NW 23:45:38 69° SW 23:47:26 48° S
Cosmos 2082 4.3 23:48:47 37° SE 23:49:27 38° ESE 23:54:36 10° NE
Helios 1B rocket 3.5 23:50:39 10° NNE 23:54:18 33° E 23:54:18 33° E
PSLV R/B 4.1 23:49:58 10° NNE 23:54:37 53° E 23:55:06 51° ESE
